Location: Mahannah Oil Field
(37.4664°N, 96.6003°W)
Time: 15:03:47
(UTC+00:00)

Altair - Pass Details

Date: 23 January 2021
Orbit: 1501 x 1682 km, 47.2° (Epoch: 05 March)

Event Time Altitude Azimuth Distance (km) Brightness Sun altitude
Exits shadow 09:22:17 25° 131° (SE) 2,898 9.0 -50.1°
Maximum altitude 09:22:52 25° 126° (SE) 2,894 9.0 -50.0°
Drops below altitude 10° 09:30:25 10° 77° (ENE) 3,934 10.1 -48.5°
Sets 09:34:21 0° 65° (ENE) 4,935 10.8 -47.7°
